TimeHST,TemperatureF,Dew PointF,Humidity,Sea Level PressureIn,VisibilityMPH,Wind Direction,Wind SpeedMPH,Gust SpeedMPH,PrecipitationIn,Events,Conditions,WindDirDegrees,DateUTC
12:53 AM,77.0,64.9,66,30.02,10.0,Calm,Calm,-,N/A,,Scattered Clouds,0,2013-06-09 10:53:00
1:53 AM,75.9,66.0,71,30.00,10.0,ESE,6.9,-,N/A,,Clear,120,2013-06-09 11:53:00
2:53 AM,75.9,66.0,71,29.98,10.0,ESE,5.8,-,N/A,,Clear,110,2013-06-09 12:53:00
3:53 AM,75.0,66.0,73,29.99,10.0,ESE,5.8,-,N/A,,Clear,110,2013-06-09 13:53:00
4:38 AM,75.2,66.2,73,29.99,10.0,Calm,Calm,-,N/A,,Mostly Cloudy,0,2013-06-09 14:38:00
4:53 AM,75.0,66.0,73,29.99,10.0,Calm,Calm,-,N/A,,Scattered Clouds,0,2013-06-09 14:53:00
5:53 AM,73.9,66.0,76,30.01,10.0,Calm,Calm,-,N/A,,Clear,0,2013-06-09 15:53:00
6:53 AM,75.9,66.0,71,30.03,10.0,ENE,4.6,-,N/A,,Clear,60,2013-06-09 16:53:00
7:53 AM,80.1,66.0,62,30.04,10.0,SSE,3.5,-,N/A,,Clear,150,2013-06-09 17:53:00
8:53 AM,82.0,66.9,60,30.04,10.0,SSW,11.5,-,N/A,,Clear,210,2013-06-09 18:53:00
9:53 AM,82.9,69.1,63,30.05,10.0,South,13.8,-,N/A,,Clear,180,2013-06-09 19:53:00
10:53 AM,84.0,69.1,61,30.04,10.0,South,13.8,-,N/A,,Clear,180,2013-06-09 20:53:00
11:53 AM,84.0,68.0,58,30.04,10.0,SSW,13.8,18.4,N/A,,Clear,200,2013-06-09 21:53:00
12:53 PM,84.9,68.0,57,30.03,10.0,SSW,11.5,-,N/A,,Partly Cloudy,210,2013-06-09 22:53:00
1:53 PM,84.0,66.9,56,30.01,10.0,SSW,11.5,-,N/A,,Mostly Cloudy,210,2013-06-09 23:53:00
2:53 PM,82.9,69.1,63,30.00,10.0,SW,10.4,-,N/A,,Overcast,230,2013-06-10 00:53:00
3:53 PM,84.0,66.9,56,30.00,10.0,SW,11.5,-,N/A,,Overcast,220,2013-06-10 01:53:00
4:53 PM,81.0,68.0,65,30.00,10.0,SW,9.2,-,N/A,,Overcast,220,2013-06-10 02:53:00
5:53 PM,81.0,68.0,65,30.01,10.0,SW,6.9,-,N/A,,Overcast,220,2013-06-10 03:53:00
6:53 PM,80.1,66.9,64,30.02,10.0,SSW,6.9,-,N/A,,Overcast,200,2013-06-10 04:53:00
7:53 PM,80.1,66.9,64,30.04,10.0,SSW,3.5,-,N/A,,Overcast,200,2013-06-10 05:53:00
8:53 PM,80.1,68.0,67,30.04,10.0,Calm,Calm,-,N/A,,Mostly Cloudy,0,2013-06-10 06:53:00
9:53 PM,80.1,61.0,52,30.05,10.0,NE,10.4,-,N/A,,Overcast,50,2013-06-10 07:53:00
10:53 PM,79.0,61.0,54,30.04,10.0,Calm,Calm,-,N/A,,Partly Cloudy,0,2013-06-10 08:53:00
11:53 PM,77.0,63.0,62,30.03,10.0,ENE,5.8,-,N/A,,Clear,60,2013-06-10 09:53:00